User: anonymous   Login
Location: Vancouver
(49.2500°N, 123.1330°W)
Time: 07:41:47
(UTC-07:00)
Language:

JAS-1B - Orbit

View from above orbital plane
View from above orbital plane
View from above satellite
View from above satellite

Ground track
Ground track

The orbit data is extracted from the following two-line orbital elements,

1 20480U 90013C   16242.09455683  .00000004  00000-0  87370-4 0  9995
2 20480  99.0216  64.4736 0539872 333.0793 140.3551 12.83412112244256
Epoch (UTC): 29 August 2016 02:16:09
Eccentricity: 0.0539872
inclination: 99.0216°
perigee height: 912 km
apogee height: 1744 km
right ascension of ascending node: 64.4736°
argument of perigee: 333.0793°
revolutions per day: 12.83412112
mean anomaly at epoch: 140.3551°
orbit number at epoch: 24425

The dashed part of the orbit path shows where the satellite is in the earth's shadow,  

DLR